This is the latest recevied weather packets stored in our database for station/object KQ4PPF. If no packets are shown the sender has not sent any weather packets the latest 10 day(s).
| Time | Temp. | Humidity | Pressure | Rain* | Wind** | Luminosity | Snow |
|---|---|---|---|---|---|---|---|
| 1777395646 | 18.89° C | 90% | 1019.4 hPa | 0 mm | - | 198 W/m² | - |
| 1777395343 | 18.89° C | 91% | 1019.4 hPa | 0 mm | - | 231 W/m² | - |
| 1777395040 | 18.89° C | 92% | 1019.4 hPa | 0 mm | - | 165 W/m² | - |
| 1777394737 | 18.33° C | 92% | 1019.2 hPa | 0 mm | - | 244 W/m² | - |
| 1777394433 | 18.33° C | 92% | 1019.4 hPa | 0 mm | - | 251 W/m² | - |
| 1777394130 | 17.78° C | 92% | 1019.3 hPa | 0 mm | - | 191 W/m² | - |
| 1777393826 | 18.33° C | 93% | 1019.5 hPa | 0 mm | - | 178 W/m² | - |
| 1777393525 | 17.78° C | 92% | 1019.4 hPa | 0 mm | - | 211 W/m² | - |
| 1777393220 | 18.33° C | 92% | 1019.7 hPa | 0 mm | - | 135 W/m² | - |
| 1777392918 | 18.89° C | 91% | 1019.6 hPa | 0 mm | - | 203 W/m² | - |
| 1777392613 | 18.33° C | 93% | 1019.4 hPa | 0 mm | - | 472 W/m² | - |
| 1777392310 | 17.78° C | 95% | 1019.7 hPa | 0 mm | - | 442 W/m² | - |
| 1777392009 | 17.78° C | 97% | 1019.8 hPa | 0 mm | - | 258 W/m² | - |
| 1777391704 | 17.78° C | 98% | 1019.6 hPa | 0 mm | - | 389 W/m² | - |
| 1777391401 | 17.22° C | 99% | 1019.6 hPa | 0 mm | - | 712 W/m² | - |
| 1777391098 | 17.22° C | 99% | 1019.8 hPa | 0 mm | - | 188 W/m² | - |
| 1777390794 | 16.67° C | 99% | 1020 hPa | 0 mm | - | 487 W/m² | - |
| 1777390490 | 16.11° C | 99% | 1019.9 hPa | 0 mm | - | 212 W/m² | - |
| 1777390187 | 16.67° C | 99% | 1020 hPa | 0 mm | - | 460 W/m² | - |
| 1777389884 | 16.11° C | 99% | 1019.9 hPa | 0 mm | - | 400 W/m² | - |
| 1777389580 | 15.56° C | 99% | 1019.8 hPa | 0 mm | - | 393 W/m² | - |
| 1777389277 | 15.56° C | 99% | 1020.1 hPa | 0 mm | - | 141 W/m² | - |
| 1777388975 | 15.56° C | 99% | 1019.7 hPa | 0 mm | - | 134 W/m² | - |
| 1777388672 | 15° C | 99% | 1019.6 hPa | 0 mm | - | 155 W/m² | - |
| 1777388368 | 15° C | 99% | 1019.3 hPa | 0 mm | - | 115 W/m² | - |
* Rain latest hour (hover to see other rain measurements)
** Current wind speed in m/s (hover to see current wind gust speed)